Weather History for Las Vegas, NM

Change the Weather History Date:

Sunday, November 3, 2013

  Actual Average Record
Temperature  
Mean Temperature 50 °F -  
Max Temperature 60 °F 54 °F 71 °F (1949)
Min Temperature 41 °F 26 °F -4 °F (1991)
Degree Days  
Heating Degree Days 14    
Moisture  
Dew Point 24 °F    
Average Humidity 39    
Maximum Humidity 63    
Minimum Humidity 26    
Precipitation  
Precipitation 0.00 in - - ()
Sea Level Pressure  
Sea Level Pressure 29.73 in    
Wind  
Wind Speed 19 mph (SW)    
Max Wind Speed 37 mph    
Max Gust Speed 47 mph    
Visibility 10 miles    
Events      
Averages and records for this station are not official NWS values.
T = Trace of Precipitation, MM = Missing Value Source: NWS Daily Summary

Daily Weather History Graph

Daily Weather History Graph

Search for Another Location

Airport:

Trip Planner

Search our weather history database for the weather conditions in past years. The results will help you decide how hot, cold, wet, or windy it might be!

Date:

Astronomy

Nov. 03, 2013 Rise Set
Actual Time 6:24 AM MST 5:02 PM MST
Civil Twilight 5:58 AM MST 5:29 PM MST
Nautical Twilight 5:27 AM MST 5:59 PM MST
Astronomical Twilight 4:58 AM MST 6:29 PM MST
Moon 6:30 AM MST (11/3) 5:21 PM MST (11/3)
Length of Visible Light 11h 31m
Length of Day
10h 38m
New Moon, 0% of the Moon is Illuminated
Nov 3
New Moon
Nov 9
First Quarter
Nov 17
Full
Nov 25
Last Quarter
Dec 2
New

Hourly Weather History & Observations

Time (MST) Temp. Windchill Dew Point Humidity Pressure Visibility Wind Dir Wind Speed Gust Speed Precip Events Conditions
12:53 AM 43.0 °F 34.8 °F 19.9 °F 40% 29.86 in 10.0 mi SSW 18.4 mph - N/A   Clear
1:53 AM 43.0 °F 34.5 °F 19.0 °F 38% 29.84 in 10.0 mi South 19.6 mph - N/A   Clear
1:53 AM 44.1 °F 35.7 °F 19.0 °F 37% 29.79 in 10.0 mi SSW 20.7 mph - N/A   Clear
2:53 AM 41.0 °F 33.5 °F 19.0 °F 41% 29.78 in 10.0 mi South 13.8 mph - N/A   Clear
3:53 AM 42.1 °F 35.2 °F 18.0 °F 38% 29.78 in 10.0 mi South 12.7 mph - N/A   Clear
4:53 AM 44.1 °F 37.4 °F 17.1 °F 34% 29.79 in 10.0 mi South 13.8 mph - N/A   Clear
5:53 AM 41.0 °F 34.7 °F 18.0 °F 40% 29.79 in 10.0 mi South 10.4 mph - N/A   Clear
6:53 AM 48.0 °F - 19.9 °F 33% 29.80 in 10.0 mi West 25.3 mph 35.7 mph N/A   Partly Cloudy
7:53 AM 44.1 °F 35.7 °F 32.0 °F 63% 29.84 in 10.0 mi WSW 20.7 mph 27.6 mph 0.00 in   Mostly Cloudy
8:53 AM 52.0 °F - 32.0 °F 47% 29.81 in 10.0 mi WSW 25.3 mph 32.2 mph N/A   Clear
9:53 AM 55.0 °F - 30.0 °F 38% 29.79 in 10.0 mi WSW 34.5 mph 47.2 mph N/A   Clear
10:53 AM 55.0 °F - 30.0 °F 38% 29.76 in 10.0 mi SW 26.5 mph 38.0 mph N/A   Clear
11:53 AM 59.0 °F - 28.9 °F 32% 29.68 in 10.0 mi SW 27.6 mph 35.7 mph N/A   Partly Cloudy
12:53 PM 60.1 °F - 26.1 °F 27% 29.64 in 10.0 mi West 19.6 mph 29.9 mph N/A   Mostly Cloudy
1:53 PM 57.9 °F - 23.0 °F 26% 29.60 in 10.0 mi WSW 33.4 mph 47.2 mph N/A   Partly Cloudy
2:53 PM 55.0 °F - 26.1 °F 33% 29.63 in 10.0 mi WSW 36.8 mph 46.0 mph N/A   Clear
3:53 PM 55.9 °F - 26.1 °F 32% 29.61 in 10.0 mi WSW 18.4 mph 28.8 mph N/A   Clear
4:53 PM 53.1 °F - 26.1 °F 35% 29.63 in 10.0 mi WSW 17.3 mph - N/A   Clear
5:53 PM 50.0 °F - 26.1 °F 39% 29.67 in 10.0 mi SW 15.0 mph - N/A   Clear
6:53 PM 50.0 °F - 25.0 °F 38% 29.67 in 10.0 mi SW 8.1 mph - N/A   Clear
7:53 PM 44.1 °F 40.8 °F 24.1 °F 45% 29.72 in 10.0 mi SSE 5.8 mph - N/A   Clear
8:53 PM 42.1 °F 39.2 °F 25.0 °F 51% 29.70 in 10.0 mi South 4.6 mph - N/A   Clear
9:53 PM 42.1 °F 37.7 °F 25.0 °F 51% 29.70 in 10.0 mi South 6.9 mph - N/A   Clear
10:53 PM 43.0 °F 41.3 °F 24.1 °F 47% 29.70 in 10.0 mi Variable 3.5 mph - N/A   Clear